Bennington, VT

12:40 AM EDT on August 17, 2017 (GMT -0400)
Morse State

Weather History for KDDH - October, 2014

Change the Weather History Date:

Friday, October 31, 2014

  Actual Average Record
Temperature  
Mean Temperature 39 °F 43 °F  
Max Temperature 50 °F 53 °F 73 °F (2006)
Min Temperature 28 °F 33 °F 19 °F (2001)
Degree Days  
Heating Degree Days 26 22  
Month to date heating degree days 403 543  
Since 1 July heating degree days 650 821  
Cooling Degree Days 0 0  
Month to date cooling degree days 11 2  
Year to date cooling degree days 308 313  
Moisture  
Dew Point 30 °F    
Average Humidity 75    
Maximum Humidity 100    
Minimum Humidity 50    
Precipitation  
Precipitation 0.00 in 0.09 in 0.73 in (2013)
Month to date precipitation 3.83 3.69  
Year to date precipitation 30.81 34.80  
Sea Level Pressure  
Sea Level Pressure 30.01 in    
Wind  
Wind Speed 3 mph (SE)    
Max Wind Speed 12 mph    
Max Gust Speed 16 mph    
Visibility 8 miles    
Events Fog    
T = Trace of Precipitation, MM = Missing Value Source: NWS Daily Summary

Daily Weather History Graph

Daily Weather History Graph

Search for Another Location

Airport or City:

Trip Planner

Search our weather history database for the weather conditions in past years. The results will help you decide how hot, cold, wet, or windy it might be!

Date:

Astronomy

Oct. 31, 2014 Rise Set
Actual Time 7:25 AM EDT 5:46 PM EDT
Civil Twilight 6:56 AM EDT 6:15 PM EDT
Nautical Twilight 6:23 AM EDT 6:49 PM EDT
Astronomical Twilight 5:50 AM EDT 7:22 PM EDT
Moon 2:08 PM EDT (10/31) 12:01 AM EDT (10/31)
Length of Visible Light 11h 19m
Length of Day
10h 20m
First Quarter, 56% of the Moon is Illuminated
Oct 31
First Quarter
Nov 6
Full
Nov 14
Last Quarter
Nov 22
New
Nov 29
First Quarter

Hourly Weather History & Observations

Time (EDT) Temp. Windchill Dew Point Humidity Pressure Visibility Wind Dir Wind Speed Gust Speed Precip Events Conditions
12:54 AM 41.0 °F 39.0 °F 33.1 °F 73% 30.02 in 10.0 mi South 3.5 mph - N/A   Overcast
1:54 AM 39.9 °F - 33.1 °F 77% 30.02 in 10.0 mi Calm Calm - N/A   Overcast
2:54 AM 35.1 °F - 32.0 °F 89% 30.03 in 10.0 mi Calm Calm - N/A   Overcast
3:54 AM 33.1 °F 30.0 °F 30.0 °F 89% 30.03 in 10.0 mi South 3.5 mph - N/A   Mostly Cloudy
4:54 AM 32.0 °F - 30.0 °F 92% 30.03 in 10.0 mi Calm Calm - N/A   Partly Cloudy
5:54 AM 28.9 °F - 28.0 °F 96% 30.04 in 10.0 mi Calm Calm - N/A   Clear
6:54 AM 28.9 °F 25.2 °F 27.0 °F 92% 30.04 in 10.0 mi North 3.5 mph - N/A   Clear
7:01 AM 30.0 °F - 28.0 °F 92% 30.02 in 9.0 mi Calm Calm - N/A   Scattered Clouds
7:05 AM 30.0 °F - 28.0 °F 92% 30.02 in 1.8 mi Calm Calm - N/A   Mostly Cloudy
7:14 AM 28.9 °F - 27.0 °F 92% 30.02 in 0.2 mi Calm Calm - N/A Fog Light Freezing Fog
7:27 AM 28.0 °F - 26.1 °F 92% 30.03 in 0.5 mi Calm Calm - N/A Fog Light Freezing Fog
7:37 AM 28.0 °F - 26.1 °F 92% 30.03 in 4.0 mi Calm Calm - N/A   Mostly Cloudy
7:43 AM 28.9 °F - 27.0 °F 92% 30.03 in 1.8 mi Calm Calm - N/A   Scattered Clouds
7:51 AM 28.4 °F 24.6 °F 26.6 °F 93% 30.03 in 0.5 mi South 3.5 mph - N/A Fog Light Freezing Fog
7:54 AM 28.9 °F 25.2 °F 27.0 °F 92% 30.05 in 0.8 mi SSE 3.5 mph - N/A   Mist
7:56 AM 28.9 °F - 27.0 °F 92% 30.03 in 1.5 mi Calm Calm - N/A   Partly Cloudy
7:58 AM 28.9 °F - 27.0 °F 92% 30.03 in 3.0 mi Calm Calm - N/A   Clear
8:10 AM 28.0 °F - 26.1 °F 92% 30.04 in 4.0 mi Calm Calm - N/A   Partly Cloudy
8:54 AM 30.9 °F - 28.9 °F 92% 30.06 in 10.0 mi Calm Calm - N/A   Clear
9:54 AM 39.9 °F - 33.1 °F 77% 30.05 in 10.0 mi Calm Calm - N/A   Clear
10:54 AM 45.0 °F 41.8 °F 33.1 °F 63% 30.02 in 10.0 mi NW 5.8 mph - N/A   Partly Cloudy
11:54 AM 46.9 °F - 33.1 °F 59% 30.01 in 10.0 mi Variable 3.5 mph - N/A   Clear
12:54 PM 48.9 °F - 32.0 °F 52% 29.99 in 10.0 mi Calm Calm - N/A   Overcast
1:54 PM 48.9 °F - 30.9 °F 50% 29.98 in 10.0 mi Calm Calm - N/A   Overcast
2:54 PM 50.0 °F - 32.0 °F 50% 29.96 in 10.0 mi SE 5.8 mph - N/A   Overcast
3:54 PM 48.9 °F - 32.0 °F 52% 29.97 in 10.0 mi SE 6.9 mph - N/A   Overcast
4:54 PM 48.9 °F - 33.1 °F 54% 29.96 in 10.0 mi Calm Calm - N/A   Overcast
5:54 PM 48.0 °F - 34.0 °F 58% 29.96 in 10.0 mi East 5.8 mph - N/A   Mostly Cloudy
6:54 PM 46.9 °F - 34.0 °F 61% 29.99 in 10.0 mi Variable 3.5 mph - N/A   Overcast
7:54 PM 46.0 °F - 34.0 °F 63% 29.99 in 10.0 mi Calm Calm - N/A   Overcast
8:54 PM 46.0 °F 44.8 °F 33.1 °F 61% 29.99 in 10.0 mi ESE 3.5 mph - N/A   Overcast
9:54 PM 46.0 °F 42.5 °F 33.1 °F 61% 29.98 in 10.0 mi East 6.9 mph - N/A   Overcast
10:54 PM 46.0 °F 41.4 °F 33.1 °F 61% 29.97 in 10.0 mi ESE 9.2 mph - N/A   Overcast
11:54 PM 45.0 °F 43.5 °F 34.0 °F 65% 29.97 in 10.0 mi Variable 3.5 mph - N/A   Overcast